Tracking 19219 objects as of 18-Jul-2018
HD Live streaming from Space Station
objects crossing your sky now

CZ-4 DEB

Track CZ-4 DEB now!
10-day predictions


NORAD ID: 35378
Int'l Code: 2006-046L
Perigee: 577.5 km
Apogee: 820.3 km
Inclination: 97.8 °
Period: 98.6 minutes
Semi major axis: 7069 km
RCS: 0.0012 m2 (small)
Launch date: October 23, 2006
Source: People's Republic of China (PRC)
Launch site: Taiyaun Space Center, China (TSC)

Note: This is SATELLITE DEBRIS
aabbcc
Your satellite tracking list
Your tracking list is empty




NASA's NSSDC Master Catalog

Two Line Element Set (TLE):
1 35378U 06046L   18198.81062594 +.00000747 +00000-0 +13407-3 0  9990
2 35378 097.8432 334.1782 0171721 176.2190 184.0356 14.60444703614926
Source of the keplerian elements: AFSPC